Flag for Germany Weather past 2 weeks in Offenburg, Baden-Württemberg, Germany

Now
66 °F

Passing clouds.


Feels Like: 66 °F
Forecast: 41 / 66 °F
Wind: 5 mph from Southwest

Location: Lahr - CAN-AFB

Current Time: Sep 4, 2015 at 12:26:56 PM

Latest Report: Sep 4, 2015 at 11:50 AM


Visibility: N/A

Pressure: 30.04 "Hg

Humidity: 40%

Dew point: 41 °F

Location of OffenburgLocation

Historic Weather in Offenburg — Graph

°F

Offenburg temperature yesterday

Maximum temperature yesterday: 70 °F (at 2:50 PM)
Minimum temperature yesterday: 57 °F (at 7:50 AM)
Average temperature yesterday: 66 °F

Past Weeks' High & Low Weather Summary

 TemperatureHumidityPressure
High95 °F (Aug 30, 4:50 PM)100% (Aug 24, 9:56 AM)30.27 "Hg (Aug 24, 9:56 AM)
Low50 °F (Aug 21, 6:50 AM)21% (Aug 31, 5:20 PM)29.68 "Hg (Aug 24, 7:50 AM)
Average73 °F53%30.00 "Hg
* Reported Aug 20 11:20 AM — Sep 4 11:20 AM, Offenburg, Weather by CustomWeather, © 2015

Note: Actual official high and low records may vary slightly from our data, if they occured in-between our weather recording intervals... More about our weather records

Advertising

Offenburg weather history for previous 24 hours

 ConditionsComfort  
Time TempWeatherWind HumidityBarometerVisibility
11:20 AM
Fri, Sep 4
66 °FPassing clouds.6 mph46%30.04 "HgN/A
10:50 AM64 °FPassing clouds.6 mph52%30.04 "HgN/A
10:20 AM63 °FPassing clouds.6 mph59%30.04 "HgN/A
9:50 AM61 °FPassing clouds.8 mph63%30.04 "HgN/A
9:20 AM59 °FPassing clouds.7 mph72%30.04 "HgN/A
8:50 AM55 °FPassing clouds.5 mph77%30.04 "HgN/A
8:20 AM55 °FSunny.2 mph82%30.04 "Hg10 mi
7:50 AM55 °FSunny.3 mph82%30.04 "Hg10 mi
8:20 PM
Thu, Sep 3
63 °FSunny.3 mph56%29.98 "Hg10 mi
7:50 PM64 °FSunny.3 mph56%29.98 "Hg10 mi
7:20 PM66 °FSunny.3 mph49%29.95 "Hg10 mi
6:50 PM68 °FSunny.3 mph46%29.95 "Hg10 mi
6:20 PM68 °FPassing clouds.5 mph46%29.95 "HgN/A
5:50 PM68 °FScattered clouds.7 mph46%29.95 "HgN/A
5:20 PM70 °FScattered clouds.7 mph43%29.95 "HgN/A
4:50 PM70 °FScattered clouds.8 mph46%29.95 "HgN/A
4:20 PM66 °FScattered showers. Partly sunny.8 mph52%29.95 "HgN/A
3:50 PM68 °FScattered showers. Passing clouds.3 mph46%29.95 "HgN/A
3:20 PM70 °FPassing clouds.5 mph40%29.95 "HgN/A
2:50 PM70 °FSunny.6 mph43%29.98 "Hg10 mi
2:20 PM68 °FSunny.5 mph43%29.98 "Hg10 mi
1:50 PM68 °FPassing clouds.5 mph43%29.98 "HgN/A
1:20 PM68 °FSunny.3 mph43%29.98 "Hg10 mi
12:50 PM68 °FScattered clouds.7 mph46%29.98 "HgN/A
12:20 PM68 °FScattered clouds.3 mph46%29.98 "HgN/A
Weather by CustomWeather, © 2015

See weather overviewHow to use our weather pages